Date String (YYYY-MM-DD hh:mm:ss) UTC,Instrument flags,Ambient pressure (hPa),Sample flow (lpm),Bypass flow (lpm),Sample temperature (°C),Ambient temperature (°C),ASC tube jacket temperature (°C),LED temperature (°C),Box temperature (°C),Sample RH (%),Span deviation,Mass concentration (μg/m³),Mass concentration (μg/m³),Mass concentration (μg/m³)
DateTimeUTC,F1_M11,P_M11,Q1_M11,Q2_M11,T1_M11,T2_M11,T3_M11,T4_M11,T5_M11,U1_M11,ZSPAN_M11,X0_M11,X2_M11,X1_M11
2022-02-28 22:00:00,,0828.6,4.99,0.00,28.5,27.8,00.0,37.3,30.3,09.2,0000.0,0018.92,0008.19,0007.28
2022-02-28 22:01:00,,0828.7,4.99,0.00,28.5,27.8,00.0,37.4,30.3,09.4,0000.0,0018.51,0008.17,0007.28
2022-02-28 22:02:00,,0828.6,5.02,0.00,28.5,27.8,00.0,37.4,30.4,09.3,0000.0,0018.26,0008.15,0007.27
2022-02-28 22:03:00,,0828.6,5.00,0.00,28.5,27.8,00.0,37.4,30.4,09.2,0000.0,0017.62,0008.15,0007.23
2022-02-28 22:04:00,,0829.0,4.99,0.00,28.5,27.9,00.0,37.4,30.4,09.4,0000.0,0017.56,0008.13,0007.21
2022-02-28 22:05:00,,0828.8,4.99,0.00,28.6,27.8,00.0,37.4,30.4,09.7,0000.0,0017.17,0008.06,0007.17
2022-02-28 22:06:00,,0828.8,5.00,0.00,28.6,27.8,00.0,37.4,30.4,09.7,0000.0,0017.24,0008.03,0007.14
2022-02-28 22:07:00,,0828.7,5.00,0.00,28.6,27.9,00.0,37.4,30.4,09.7,0000.0,0017.61,0007.98,0007.07
2022-02-28 22:08:00,,0828.6,5.01,0.00,28.6,27.9,00.0,37.4,30.4,09.4,0000.0,0016.91,0007.91,0007.03
2022-02-28 22:09:00,,0828.8,5.00,0.00,28.6,27.9,00.0,37.4,30.5,09.5,0000.0,0016.35,0007.85,0006.99
2022-02-28 22:10:00,,0828.7,5.00,0.00,28.6,27.9,00.0,37.5,30.5,09.4,0000.0,0016.63,0007.79,0006.95
2022-02-28 22:11:00,,0828.7,4.99,0.00,28.6,27.9,00.0,37.5,30.5,09.1,0000.0,0017.15,0007.75,0006.92
2022-02-28 22:12:00,,0828.6,5.00,0.00,28.6,27.9,00.0,37.5,30.5,09.2,0000.0,0017.57,0007.77,0006.90
2022-02-28 22:13:00,,0828.6,5.00,0.00,28.6,27.9,00.0,37.5,30.5,09.1,0000.0,0017.44,0007.78,0006.87
2022-02-28 22:14:00,,0828.7,5.01,0.00,28.6,27.9,00.0,37.5,30.5,09.1,0000.0,0018.06,0007.86,0006.89
2022-02-28 22:15:00,,0828.5,5.00,0.00,28.6,27.9,00.0,37.5,30.5,08.9,0000.0,0018.42,0007.87,0006.91
2022-02-28 22:16:00,,0828.6,4.99,0.00,28.7,28.0,00.0,37.5,30.5,08.9,0000.0,0018.79,0007.89,0006.91
2022-02-28 22:17:00,,0828.9,5.01,0.00,28.7,28.0,00.0,37.5,30.6,08.9,0000.0,0018.69,0007.89,0006.93
2022-02-28 22:18:00,,0828.6,5.01,0.00,28.7,28.0,00.0,37.5,30.6,08.7,0000.0,0018.83,0007.92,0006.95
2022-02-28 22:19:00,,0828.6,5.00,0.00,28.7,28.0,00.0,37.5,30.6,08.8,0000.0,0018.98,0007.99,0006.98
2022-02-28 22:20:00,,0828.6,4.99,0.00,28.7,28.0,00.0,37.6,30.6,08.8,0000.0,0018.88,0008.05,0007.01
2022-02-28 22:21:00,,0828.6,5.01,0.00,28.7,28.0,00.0,37.6,30.6,08.8,0000.0,0018.58,0008.12,0007.05
2022-02-28 22:22:00,,0828.5,5.01,0.00,28.7,28.1,00.0,37.6,30.6,08.8,0000.0,0017.74,0008.16,0007.07
2022-02-28 22:23:00,,0828.5,4.99,0.00,28.8,28.1,00.0,37.6,30.6,08.9,0000.0,0017.65,0008.20,0007.07
2022-02-28 22:24:00,,0828.9,5.01,0.00,28.8,28.1,00.0,37.6,30.7,08.6,0000.0,0019.22,0008.24,0007.09
2022-02-28 22:25:00,,0828.9,5.00,0.00,28.8,28.1,00.0,37.6,30.7,08.6,0000.0,0019.69,0008.17,0007.09
2022-02-28 22:26:00,,0828.5,5.01,0.00,28.8,28.1,00.0,37.6,30.7,08.7,0000.0,0019.03,0008.12,0007.09
2022-02-28 22:27:00,,0828.5,4.99,0.00,28.8,28.1,00.0,37.7,30.7,08.7,0000.0,0018.59,0008.14,0007.11
2022-02-28 22:28:00,,0828.4,5.01,0.00,28.8,28.1,00.0,37.7,30.7,08.8,0000.0,0018.91,0008.17,0007.12
2022-02-28 22:29:00,,0828.5,5.01,0.00,28.8,28.1,00.0,37.7,30.7,08.6,0000.0,0019.79,0008.19,0007.14
2022-02-28 22:30:00,,0828.5,5.00,0.00,28.8,28.1,00.0,37.7,30.7,08.7,0000.0,0020.00,0008.23,0007.15
2022-02-28 22:31:00,,0828.4,4.99,0.00,28.9,28.1,00.0,37.7,30.7,08.4,0000.0,0020.23,0008.22,0007.15
2022-02-28 22:32:00,,0828.5,4.99,0.00,28.9,28.1,00.0,37.7,30.7,08.6,0000.0,0020.34,0008.21,0007.14
2022-02-28 22:33:00,,0828.4,4.99,0.00,28.8,28.1,00.0,37.7,30.6,08.5,0000.0,0021.07,0008.22,0007.15
2022-02-28 22:34:00,,0828.3,5.00,0.00,28.8,28.1,00.0,37.7,30.6,08.3,0000.0,0021.00,0008.18,0007.16
2022-02-28 22:35:00,,0828.4,5.01,0.00,28.8,28.1,00.0,37.7,30.6,08.7,0000.0,0020.24,0008.21,0007.19
2022-02-28 22:36:00,,0828.3,5.00,0.00,28.8,28.1,00.0,37.7,30.6,08.6,0000.0,0018.95,0008.25,0007.23
2022-02-28 22:37:00,,0828.3,4.99,0.00,28.8,28.1,00.0,37.7,30.6,08.9,0000.0,0019.01,0008.30,0007.26
2022-02-28 22:38:00,,0828.3,4.99,0.00,28.8,28.1,00.0,37.7,30.6,09.1,0000.0,0020.13,0008.28,0007.28
2022-02-28 22:39:00,,0828.2,5.00,0.00,28.8,28.1,00.0,37.7,30.5,09.0,0000.0,0020.29,0008.34,0007.30
2022-02-28 22:40:00,,0828.2,5.00,0.00,28.8,28.1,00.0,37.7,30.5,09.1,0000.0,0019.41,0008.36,0007.30
2022-02-28 22:41:00,,0828.2,5.00,0.00,28.8,28.1,00.0,37.7,30.5,08.9,0000.0,0019.16,0008.31,0007.32
2022-02-28 22:42:00,,0828.3,5.01,0.00,28.7,28.1,00.0,37.7,30.5,08.8,0000.0,0019.42,0008.35,0007.36
2022-02-28 22:43:00,,0828.3,5.00,0.00,28.7,28.0,00.0,37.7,30.5,08.8,0000.0,0020.07,0008.39,0007.40
2022-02-28 22:44:00,,0828.1,5.01,0.00,28.7,28.0,00.0,37.7,30.5,08.8,0000.0,0019.81,0008.41,0007.44
2022-02-28 22:45:00,,0828.1,4.99,0.00,28.7,28.0,00.0,37.7,30.5,09.0,0000.0,0020.25,0008.44,0007.47
2022-02-28 22:46:00,,0828.2,4.99,0.00,28.7,27.9,00.0,37.7,30.5,09.2,0000.0,0019.65,0008.46,0007.49
2022-02-28 22:47:00,,0828.1,5.00,0.00,28.7,27.9,00.0,37.7,30.5,09.1,0000.0,0019.59,0008.46,0007.49
2022-02-28 22:48:00,,0828.1,5.01,0.00,28.7,27.9,00.0,37.7,30.5,08.4,0000.0,0019.67,0008.45,0007.48
2022-02-28 22:49:00,,0828.1,5.01,0.00,28.7,27.9,00.0,37.7,30.5,08.3,0000.0,0018.63,0008.43,0007.48
2022-02-28 22:50:00,,0828.1,5.00,0.00,28.7,27.9,00.0,37.7,30.5,08.2,0000.0,0017.69,0008.43,0007.48
2022-02-28 22:51:00,,0828.1,5.00,0.00,28.7,27.9,00.0,37.7,30.5,08.4,0003.4,0017.47,0008.42,0007.50
2022-02-28 22:52:00,,0828.1,4.99,0.00,28.7,27.9,00.0,37.7,30.5,08.7,0003.3,0017.02,0008.44,0007.50
2022-02-28 22:53:00,,0828.1,5.01,0.00,28.7,28.0,00.0,37.7,30.6,08.6,0000.0,0016.90,0008.43,0007.50
2022-02-28 22:54:00,,0828.1,4.99,0.00,28.8,28.0,00.0,37.7,30.6,08.7,0000.0,0016.60,0008.44,0007.51
2022-02-28 22:55:00,,0828.1,4.99,0.00,28.8,27.9,00.0,37.7,30.6,08.5,0000.0,0016.72,0008.44,0007.51
2022-02-28 22:56:00,,0828.1,5.00,0.00,28.8,27.9,00.0,37.7,30.6,08.7,0000.0,0016.50,0008.43,0007.49
2022-02-28 22:57:00,,0828.1,5.01,0.00,28.8,27.9,00.0,37.7,30.6,08.6,0000.0,0015.97,0008.40,0007.49
2022-02-28 22:58:00,,0828.1,5.00,0.00,28.8,28.0,00.0,37.7,30.6,08.6,0000.0,0015.87,0008.38,0007.50
2022-02-28 22:59:00,,0828.0,5.00,0.00,28.8,28.0,00.0,37.7,30.5,08.6,0000.0,0015.75,0008.37,0007.52
